カタログに戻る

SATCOM 3 DEB

LostHEO
NORAD 29001·DEBRIS·🇺🇸 United States

打ち上げ Dec 7, 1979 から Cape Canaveral Space Force Station

Loading…

次のパス (今後24時間)

TLE

古いSource: Space-Track

元期: Aug 21, 2020, 14:00 UTC

1 29001U 79101D   20234.58360050 -.00000111  00000-0  10000-3 0  9996
2 29001   9.4438 288.5934 4638713  82.6349 325.9613  1.82625913 97388

AllMySatでSATCOM 3 DEBをリアルタイム追跡

Download on the App Store